Probability
0 0 0 0 0 0 0 0 0 0 0 1 2 2 2 2 2 1 0 0 0 0 0 0 0 0 1 2 2 2 1 0 0 0 0 0 0 0 0 0 0 0 0
0 0 0 0 0 0 0 0 0 0 0 0 1 1 1 1 1 0 0 0 0 0 0 0 0 0 0 1 1 2 2 1 0 0 0 0 0 0 0 0 0 0 0
0 0 0 0 0 0 0 0 0 0 0 0 0 0 0 0 0 0 0 1 1 0 0 0 0 0 0 0 0 1 2 1 0 0 0 0 0 0 0 0 0 0 0
0 0 0 0 0 0 0 0 0 0 0 0 0 0 0 0 0 0 0 1 2 1 0 0 0 0 0 0 1 2 2 1 0 0 0 0 0 0 0 0 0 0 0
0 0 0 0 0 0 0 0 0 0 0 0 0 0 0 0 0 0 0 1 2 2 1 0 0 0 0 0 1 2 2 1 1 0 0 0 0 0 0 0 0 0 0
0 0 0 0 0 0 0 0 0 0 0 0 0 0 0 0 0 0 0 0 1 2 2 1 0 0 1 0 0 1 1 1 1 0 0 0 0 0 0 0 0 0 0
0 0 0 0 0 0 0 0 0 0 0 0 0 0 0 0 0 0 0 0 0 2 2 1 0 0 1 0 0 0 0 0 0 0 0 0 1 1 0 0 0 0 0
0 0 0 0 0 0 0 0 0 0 0 0 0 0 0 0 0 0 0 0 1 2 3 2 0 0 1 1 1 1 1 1 0 0 0 1 1 0 0 0 0 0 0
0 0 0 0 0 0 0 0 0 0 0 0 0 0 0 0 0 0 0 0 1 2 3 1 0 0 0 1 1 2 2 1 0 0 0 0 0 0 0 0 0 0 0
0 0 0 0 0 0 0 0 0 0 0 0 0 0 0 0 0 0 0 0 1 2 2 1 0 0 0 0 1 1 1 1 0 0 0 0 1 1 0 0 0 0 0
0 0 0 0 0 0 0 0 0 0 0 0 0 0 0 0 0 0 0 0 0 1 1 0 0 0 0 0 0 0 0 0 0 0 0 0 1 1 0 0 0 0 0
0 0 0 0 0 0 0 0 0 0 0 0 0 0 0 0 0 0 0 0 0 0 0 0 0 0 0 0 0 0 0 0 0 0 0 0 1 1 0 0 0 0 0
0 0 0 0 0 0 0 0 0 0 0 0 0 0 0 0 0 0 0 0 0 0 0 0 0 0 0 0 0 0 0 0 0 0 0 0 0 0 0 0 0 0 0
0 0 0 0 0 0 0 0 0 0 0 0 0 0 0 0 0 0 0 0 0 0 0 0 0 0 0 0 0 0 0 0 0 0 0 0 0 0 0 0 0 0 0
0 0 0 0 0 0 0 0 0 0 0 0 0 0 0 0 0 0 0 0 0 0 0 0 0 0 0 0 0 0 0 0 0 0 0 0 0 0 0 0 0 0 0
0 0 0 0 0 0 0 0 0 0 0 0 0 0 0 0 0 0 0 0 0 0 0 0 0 0 0 0 0 0 0 0 0 0 0 0 0 0 0 0 0 0 0
0 0 0 0 0 0 0 0 0 0 0 0 0 0 0 0 0 0 0 0 0 0 0 0 0 0 0 0 0 0 0 0 0 0 0 0 0 0 0 0 0 0 0
0 0 0 0 0 0 0 0 0 0 0 0 0 0 0 0 0 0 0 0 0 0 0 0 0 0 0 0 0 0 0 0 0 0 0 0 0 0 0 0 0 0 0
0 0 0 0 0 0 0 0 0 0 0 0 0 0 0 0 0 0 0 0 0 0 0 0 0 0 0 0 0 0 0 0 0 0 0 0 0 0 0 0 0 0 0
0 0 0 0 0 0 0 0 0 0 0 0 0 0 0 0 0 0 0 0 0 0 0 0 0 0 0 0 0 0 0 0 0 0 0 0 0 0 0 0 0 0 0
0 0 0 0 0 0 0 0 0 0 0 0 0 0 0 0 0 0 0 0 0 0 0 0 0 0 0 0 0 0 0 0 0 0 0 0 0 0 0 0 0 0 0
0 0 0 0 0 0 0 0 0 0 0 0 0 0 0 0 0 0 0 0 0 0 0 0 0 0 0 0 0 0 0 0 0 0 0 0 0 0 0 0 0 0 0
0 0 0 0 0 0 0 0 0 0 0 0 0 0 0 0 0 0 0 0 0 0 0 0 0 0 0 0 0 0 0 0 0 0 0 0 0 0 0 0 0 0 0
0 0 0 0 0 0 0 0 0 0 0 0 0 0 0 0 0 0 0 0 0 0 0 0 0 0 0 0 0 0 0 0 0 0 0 0 0 0 0 0 0 0 0
0 0 0 0 0 0 0 0 0 0 0 0 0 0 0 0 0 0 0 0 0 0 0 0 0 0 0 0 0 0 0 0 0 0 0 0 0 0 0 0 0 0 0
0 0 0 0 0 0 0 0 0 0 0 0 0 0 0 0 0 0 0 0 0 0 0 0 0 0 0 0 0 0 0 0 0 0 0 0 0 0 0 0 0 0 0
Wind_Speed
6 6 5 4 3 2 1 1 1 2 3 4 6 6 6 6 6 5 3 2 2 3 4 5 5 4 3 3 3 3 3 3 4 3 2 2 2 2 2 4 3 4 7
5 5 5 5 4 3 2 2 2 3 4 5 5 5 5 4 4 6 5 4 3 4 4 2 3 3 3 2 2 3 3 4 4 4 3 2 3 2 2 4 4 4 5
4 5 5 5 4 4 4 4 4 4 5 5 5 5 4 3 3 3 4 5 5 6 5 3 2 1 2 2 3 3 3 3 3 3 3 2 2 2 2 3 4 3 3
4 4 5 5 5 4 4 4 5 5 5 5 4 3 2 1 2 2 2 3 3 4 4 5 4 2 2 1 1 1 2 2 2 2 2 1 2 2 2 2 3 3 3
5 5 5 5 5 5 5 5 5 6 6 6 7 7 7 7 8 8 6 5 4 4 3 3 3 5 7 4 2 2 1 0 1 1 1 1 1 1 2 2 2 2 2
6 6 6 6 6 6 6 6 6 6 7 8 8 8 9 9 12 12 9 6 6 5 3 2 3 6 7 6 4 3 1 1 1 0 1 1 1 1 1 1 1 0 2
7 7 7 7 7 7 7 7 7 7 7 8 8 8 7 9 15 14 13 7 6 5 5 3 1 3 7 6 6 6 4 3 1 0 0 0 1 1 1 1 1 1 1
6 6 6 6 6 6 6 6 7 6 6 6 7 6 6 9 15 15 16 7 5 5 5 3 1 1 1 1 3 4 4 5 5 2 1 2 3 3 2 1 1 0 1
6 6 6 6 6 6 6 6 5 5 5 5 5 6 6 7 14 16 15 6 4 4 3 3 3 4 4 4 2 1 2 2 4 6 6 6 5 4 3 2 1 1 1
6 6 5 5 5 6 6 5 4 4 4 3 3 4 5 5 9 15 15 6 6 6 4 4 8 7 6 6 4 2 2 1 3 3 2 2 2 3 1 0 1 1 1
4 4 4 4 4 5 5 5 5 4 4 4 4 3 4 4 7 11 12 5 5 6 4 4 5 8 7 6 4 3 2 2 1 2 2 2 1 2 2 1 1 1 0
2 2 3 3 5 6 5 4 5 5 5 5 5 5 4 5 7 9 11 9 7 4 4 3 4 7 6 4 2 3 3 3 1 2 2 2 1 1 1 1 1 0 0
2 1 2 3 4 5 5 5 5 5 5 5 5 5 5 5 8 14 14 12 9 4 2 4 4 5 5 2 1 0 1 1 1 2 2 2 2 2 2 2 2 2 2
2 2 3 4 5 5 4 5 5 5 5 5 6 5 5 5 7 8 8 8 8 5 3 3 3 3 3 2 1 1 1 1 2 2 3 2 2 2 2 2 2 2 2
1 3 4 4 4 5 5 5 5 5 4 4 4 5 5 6 8 12 9 7 6 5 4 3 3 3 3 3 3 3 3 3 3 3 3 3 2 2 2 2 2 2 2
3 4 3 3 3 3 4 4 7 6 5 6 6 6 4 6 10 11 12 14 13 11 7 6 6 6 6 5 5 5 4 4 4 3 3 3 3 3 2 2 3 3 3
3 4 3 3 2 2 3 3 3 2 3 4 5 6 6 8 10 11 10 11 14 13 9 8 7 7 7 7 6 6 6 5 5 5 5 4 4 3 3 3 4 3 3
3 4 3 2 2 3 2 2 2 2 2 1 0 2 4 6 10 11 10 8 8 9 7 7 7 7 7 7 6 6 6 6 6 5 5 5 4 4 4 3 3 4 3
4 3 2 2 1 2 2 2 3 3 3 2 2 1 3 2 5 9 8 5 5 6 6 6 6 6 6 6 5 5 5 5 6 5 5 5 4 4 4 3 3 5 4
4 4 2 1 0 1 1 2 3 3 3 3 4 3 4 4 4 4 5 4 4 4 5 5 5 6 5 5 5 5 5 5 5 5 4 4 4 3 4 4 4 3 3
2 3 1 2 1 1 1 2 3 3 3 3 3 2 3 3 3 4 4 4 4 4 4 4 4 4 5 4 4 5 5 4 4 4 4 3 3 3 3 3 4 4 4
2 3 4 2 2 2 1 1 3 3 4 4 3 2 2 2 3 3 3 3 3 3 3 3 3 2 3 3 3 4 4 4 4 4 4 4 3 3 3 4 4 4 4
5 2 1 2 3 3 2 1 2 3 3 3 3 2 2 2 2 2 2 2 2 3 3 2 2 2 2 3 4 4 4 4 4 4 3 3 3 3 3 4 5 4 4
6 4 2 1 3 4 3 2 2 3 3 3 3 2 3 3 3 3 2 2 2 3 3 2 2 3 5 5 4 4 4 4 5 4 5 3 3 4 4 4 4 4 3
6 5 3 2 2 3 3 3 3 3 4 3 3 3 2 3 3 3 3 2 3 3 2 2 1 3 7 8 6 5 6 8 7 6 4 3 4 4 4 4 3 4 4
6 5 4 2 1 2 2 3 3 4 4 4 3 3 3 3 3 3 3 3 3 3 2 2 2 4 6 6 6 6 8 9 11 11 4 3 4 4 3 3 4 4 4
Wind_Direction
33 36 44 52 62 74 91 170 225 238 235 230 233 231 221 202 190 181 196 225 241 260 222 213 222 220 215 220 224 228 224 207 225 251 223 202 172 200 177 242 237 193 200
24 26 24 23 20 12 350 323 301 288 272 257 254 249 244 203 184 172 187 201 219 252 271 262 237 201 199 220 216 224 229 221 214 237 235 214 212 216 203 238 245 216 204
20 22 15 6 358 350 342 339 332 316 294 279 270 260 244 200 184 186 189 201 215 220 223 230 250 208 194 210 212 223 230 233 216 222 241 220 222 221 222 242 255 260 255
29 29 20 6 359 355 354 349 341 334 326 332 332 330 336 42 35 348 300 249 244 242 227 207 201 205 152 149 195 217 227 230 227 225 241 243 231 220 188 221 250 253 260
36 34 28 25 18 16 16 15 12 8 8 9 9 20 27 38 28 12 346 321 290 267 262 250 173 127 109 99 85 44 21 293 206 209 237 241 229 199 212 207 233 271 275
45 42 36 34 31 29 27 25 30 32 28 27 29 34 41 36 19 16 358 330 317 306 289 268 165 153 151 150 152 150 116 40 46 142 187 238 253 218 197 185 213 293 289
46 44 39 36 35 30 27 24 31 42 37 35 33 35 43 32 17 7 357 327 302 297 300 294 257 164 163 177 188 193 200 200 194 34 12 202 110 122 127 134 178 230 265
40 46 43 36 31 28 30 34 28 31 38 39 30 27 30 30 15 3 350 318 286 281 282 282 295 160 160 139 172 194 195 186 194 193 71 79 79 71 80 109 144 221 281
33 38 38 33 25 23 24 32 36 30 34 49 30 22 21 23 15 7 358 329 330 324 323 12 40 63 57 46 26 48 117 132 134 113 101 102 98 84 67 55 52 31 320
29 28 27 25 26 27 20 20 27 30 29 56 50 32 32 18 15 15 9 359 355 346 354 52 60 64 52 37 21 34 66 75 118 136 141 156 179 170 164 138 99 76 331
35 23 16 10 26 48 29 20 22 19 19 28 40 33 35 28 15 15 12 11 351 344 4 40 50 44 40 31 25 36 66 22 25 105 115 113 115 130 164 200 140 138 214
71 29 10 36 37 37 31 29 25 16 25 28 23 20 12 20 19 2 357 356 349 349 4 22 28 17 9 0 19 62 39 10 6 71 87 81 75 71 64 68 86 110 149
111 54 26 62 69 50 32 32 28 27 26 24 17 15 11 15 11 4 358 356 355 345 346 354 346 351 342 327 188 103 335 325 36 89 100 99 86 76 62 43 28 29 28
142 95 68 63 68 69 44 36 40 27 22 18 15 10 8 15 11 360 351 352 353 355 351 345 343 359 356 2 87 200 214 86 89 100 105 97 85 65 50 42 32 11 28
94 99 87 80 75 86 73 45 45 58 40 21 6 1 11 9 356 353 0 360 355 1 355 7 20 21 29 35 39 44 53 65 68 73 89 90 81 78 58 35 31 30 44
43 74 70 79 80 107 123 96 52 66 60 52 38 25 37 17 357 4 8 13 19 26 36 35 32 32 38 41 43 43 46 49 56 68 73 75 75 73 59 34 32 41 45
38 69 74 54 53 68 112 140 139 96 52 39 34 36 31 14 14 15 19 27 32 36 44 40 35 34 35 37 40 42 41 39 48 56 59 56 56 56 54 44 35 34 37
72 84 84 79 53 60 57 71 103 133 143 150 64 27 20 18 19 21 29 40 38 38 38 36 35 33 32 33 35 37 38 36 40 46 46 43 42 46 45 43 44 32 27
51 67 64 72 64 80 78 80 80 80 82 77 68 23 349 0 24 30 34 42 45 39 36 34 29 28 29 30 30 35 40 38 37 40 36 33 30 35 36 35 43 39 36
93 76 44 353 132 105 81 90 91 84 78 72 58 23 358 22 38 30 31 33 42 46 43 35 28 26 24 22 26 31 39 39 31 32 28 22 20 30 35 36 35 37 35
140 140 178 273 258 100 95 105 111 105 96 92 89 53 8 31 44 38 37 37 37 42 50 48 33 24 21 18 22 31 39 37 29 18 16 13 14 19 28 39 36 39 35
315 178 192 201 127 86 28 93 117 118 118 122 140 145 78 63 51 46 47 47 47 54 61 61 48 33 33 27 22 27 40 38 22 10 5 7 12 21 33 41 40 46 36
307 296 206 160 134 131 233 219 131 127 127 130 133 135 130 112 95 75 68 59 61 62 59 54 46 33 31 32 41 40 34 18 357 353 358 3 15 30 40 47 51 57 46
306 298 279 211 164 170 198 177 151 140 138 137 136 132 131 129 120 109 100 79 82 84 79 51 24 45 62 54 53 53 33 5 348 343 346 10 31 35 50 58 56 50 42
291 292 280 256 189 179 190 175 171 161 154 155 148 143 143 135 129 129 130 121 111 112 119 114 68 55 72 70 64 48 22 17 17 358 341 24 48 53 67 67 63 60 53
279 282 281 269 227 196 188 181 181 167 156 156 158 157 153 143 141 141 136 133 135 131 117 101 89 85 90 80 63 40 26 20 11 4 8 51 61 51 59 69 73 72 75